Date String (YYYY-MM-DD hh:mm:ss) UTC,Instrument flags,Ambient pressure (hPa),Sample flow (lpm),Bypass flow (lpm),Sample temperature (°C),Ambient temperature (°C),ASC tube jacket temperature (°C),LED temperature (°C),Box temperature (°C),Sample RH (%),Span deviation,Mass concentration (μg/m³),Mass concentration (μg/m³),Mass concentration (μg/m³)
DateTimeUTC,F1_M11,P_M11,Q1_M11,Q2_M11,T1_M11,T2_M11,T3_M11,T4_M11,T5_M11,U1_M11,ZSPAN_M11,X0_M11,X2_M11,X1_M11
2022-01-21 19:00:00,,0828.8,5.01,0.00,22.0,21.2,00.0,31.1,23.6,15.0,-002.5,0015.37,0010.01,0009.59
2022-01-21 19:01:00,,0828.8,4.98,0.00,21.9,21.2,00.0,31.1,23.6,15.3,-002.6,0015.12,0009.84,0009.41
2022-01-21 19:02:00,,0829.0,5.00,0.00,21.9,21.2,00.0,31.1,23.6,15.2,-002.7,0014.90,0009.64,0009.20
2022-01-21 19:03:00,,0829.0,5.01,0.00,21.9,21.2,00.0,31.1,23.5,15.4,-002.6,0014.59,0009.40,0008.95
2022-01-21 19:04:00,,0829.2,4.98,0.00,21.9,21.1,00.0,31.0,23.5,16.0,-002.6,0014.42,0009.25,0008.81
2022-01-21 19:05:00,,0829.3,5.01,0.00,21.9,21.2,00.0,31.0,23.5,16.2,-002.7,0013.78,0009.18,0008.74
2022-01-21 19:06:00,,0828.9,5.01,0.00,21.9,21.1,00.0,31.0,23.5,16.1,-002.8,0013.04,0009.07,0008.65
2022-01-21 19:07:00,,0829.2,4.99,0.00,21.9,21.4,00.0,31.0,23.6,16.4,-003.0,0013.18,0009.10,0008.64
2022-01-21 19:08:00,,0829.3,5.00,0.00,22.0,22.3,00.0,31.0,23.9,15.9,-002.9,0013.13,0009.04,0008.60
2022-01-21 19:09:00,,0829.3,5.00,0.00,22.2,22.9,00.0,31.1,24.1,15.9,-002.9,0013.08,0009.02,0008.60
2022-01-21 19:10:00,,0829.3,5.00,0.00,22.2,22.7,00.0,31.1,24.1,16.0,-002.8,0013.08,0009.05,0008.65
2022-01-21 19:11:00,,0829.3,5.01,0.00,22.2,22.5,00.0,31.1,24.1,16.1,-002.7,0013.17,0009.09,0008.70
2022-01-21 19:12:00,,0829.1,5.00,0.00,22.2,22.3,00.0,31.1,24.0,16.3,-002.8,0013.36,0009.17,0008.76
2022-01-21 19:13:00,,0828.9,4.99,0.00,22.2,22.1,00.0,31.1,24.0,16.8,-002.7,0013.77,0009.33,0008.94
2022-01-21 19:14:00,,0829.0,5.01,0.00,22.2,22.0,00.0,31.1,23.9,17.3,-002.6,0014.16,0009.59,0009.21
2022-01-21 19:15:00,,0828.9,4.98,0.00,22.2,21.8,00.0,31.1,23.9,17.3,-002.7,0014.97,0010.02,0009.63
2022-01-21 19:16:00,,0828.9,5.02,0.00,22.1,21.7,00.0,31.1,23.8,16.9,-002.7,0015.66,0010.39,0009.99
2022-01-21 19:17:00,,0829.0,4.99,0.00,22.1,21.6,00.0,31.1,23.8,16.6,-002.7,0016.26,0010.78,0010.36
2022-01-21 19:18:00,,0828.9,5.00,0.00,22.1,21.5,00.0,31.1,23.8,16.6,-002.6,0017.03,0011.09,0010.68
2022-01-21 19:19:00,,0829.0,4.99,0.00,22.1,21.5,00.0,31.1,23.7,16.8,-002.8,0017.90,0011.42,0011.02
2022-01-21 19:20:00,,0829.0,5.00,0.00,22.1,21.4,00.0,31.1,23.8,16.3,-003.0,0018.36,0011.70,0011.26
2022-01-21 19:21:00,,0829.0,4.99,0.00,22.0,21.4,00.0,31.1,23.7,16.2,-003.0,0018.79,0011.99,0011.49
2022-01-21 19:22:00,,0829.0,5.01,0.00,22.0,21.3,00.0,31.1,23.7,16.1,-003.0,0019.22,0012.26,0011.73
2022-01-21 19:23:00,,0829.0,4.99,0.00,22.0,21.3,00.0,31.1,23.6,16.1,-003.0,0019.54,0012.47,0011.95
2022-01-21 19:24:00,,0829.0,5.00,0.00,21.9,21.2,00.0,31.0,23.6,16.2,-003.0,0019.55,0012.59,0012.06
2022-01-21 19:25:00,,0829.0,5.00,0.00,21.9,21.2,00.0,31.0,23.6,16.6,-002.9,0019.60,0012.67,0012.13
2022-01-21 19:26:00,,0829.0,5.00,0.00,21.9,21.2,00.0,31.0,23.6,17.0,-002.9,0019.68,0012.60,0012.06
2022-01-21 19:27:00,,0829.0,4.99,0.00,21.9,21.2,00.0,31.0,23.6,16.8,-002.9,0019.30,0012.46,0011.93
2022-01-21 19:28:00,,0829.0,4.99,0.00,21.9,21.2,00.0,31.0,23.5,16.6,-002.8,0019.45,0012.31,0011.79
2022-01-21 19:29:00,,0829.0,5.02,0.00,21.9,21.2,00.0,31.0,23.5,16.5,-002.7,0018.85,0012.17,0011.66
2022-01-21 19:30:00,,0829.0,4.99,0.00,21.9,21.2,00.0,30.9,23.5,16.3,-002.5,0018.06,0011.99,0011.50
2022-01-21 19:31:00,,0829.0,5.01,0.00,21.8,21.2,00.0,30.9,23.5,16.3,-002.3,0017.85,0011.92,0011.45
2022-01-21 19:32:00,,0829.0,4.99,0.00,21.8,21.1,00.0,30.9,23.5,16.5,-002.3,0017.66,0011.81,0011.39
2022-01-21 19:33:00,,0829.0,5.01,0.00,21.8,21.1,00.0,30.9,23.5,16.7,-002.2,0017.63,0011.72,0011.33
2022-01-21 19:34:00,,0829.0,5.00,0.00,21.8,21.1,00.0,30.9,23.4,16.8,-002.1,0017.51,0011.65,0011.27
2022-01-21 19:35:00,,0829.0,4.99,0.00,21.7,21.0,00.0,30.9,23.4,16.8,-002.2,0017.37,0011.59,0011.21
2022-01-21 19:36:00,,0829.0,5.01,0.00,21.7,21.0,00.0,30.9,23.3,16.9,-002.3,0016.99,0011.40,0011.05
2022-01-21 19:37:00,,0829.0,5.00,0.00,21.7,21.0,00.0,30.8,23.3,16.9,-002.2,0016.21,0011.16,0010.83
2022-01-21 19:38:00,,0829.0,4.98,0.00,21.7,21.2,00.0,30.8,23.4,16.8,-002.4,0016.04,0011.03,0010.69
2022-01-21 19:39:00,,0829.0,5.00,0.00,21.8,22.1,00.0,30.9,23.7,16.7,-002.3,0015.54,0010.95,0010.61
2022-01-21 19:40:00,,0829.0,5.01,0.00,22.0,22.9,00.0,30.9,24.0,16.4,-002.4,0015.20,0010.79,0010.48
2022-01-21 19:41:00,,0829.0,5.01,0.00,22.1,22.9,00.0,31.0,24.1,16.2,-002.3,0015.05,0010.65,0010.35
2022-01-21 19:42:00,,0829.0,5.00,0.00,22.1,22.6,00.0,31.0,24.0,16.2,-002.4,0015.07,0010.51,0010.20
2022-01-21 19:43:00,,0829.0,5.00,0.00,22.1,22.3,00.0,31.0,23.9,16.3,-002.5,0014.92,0010.37,0010.06
2022-01-21 19:44:00,,0828.9,4.99,0.00,22.0,22.0,00.0,31.0,23.8,16.2,-002.5,0014.51,0010.18,0009.89
2022-01-21 19:45:00,,0828.9,5.01,0.00,22.0,21.8,00.0,31.0,23.7,16.3,-002.4,0014.09,0010.01,0009.73
2022-01-21 19:46:00,,0829.0,5.01,0.00,22.0,21.6,00.0,31.0,23.6,16.5,-002.1,0013.87,0009.84,0009.56
2022-01-21 19:47:00,,0829.0,4.99,0.00,21.9,21.5,00.0,31.0,23.5,16.7,-002.0,0013.65,0009.68,0009.40
2022-01-21 19:48:00,,0829.0,5.02,0.00,21.9,21.3,00.0,30.9,23.5,16.9,-001.8,0013.80,0009.57,0009.31
2022-01-21 19:49:00,,0829.0,4.99,0.00,21.8,21.2,00.0,30.9,23.4,17.0,-001.6,0014.54,0009.46,0009.20
2022-01-21 19:50:00,,0828.9,5.02,0.00,21.8,21.1,00.0,30.9,23.3,17.2,-001.6,0014.35,0009.33,0009.09
2022-01-21 19:51:00,,0828.9,4.98,0.00,21.7,21.0,00.0,30.9,23.2,17.2,-001.7,0014.23,0009.23,0008.98
2022-01-21 19:52:00,,0828.8,5.02,0.00,21.7,20.9,00.0,30.9,23.2,17.3,-001.8,0014.21,0009.23,0008.95
2022-01-21 19:53:00,,0828.9,4.99,0.00,21.6,20.8,00.0,30.8,23.1,17.5,-001.7,0013.93,0009.18,0008.90
2022-01-21 19:54:00,,0828.9,5.01,0.00,21.6,20.8,00.0,30.8,23.1,17.5,-001.8,0013.81,0009.12,0008.86
2022-01-21 19:55:00,,0829.2,5.01,0.00,21.5,20.7,00.0,30.8,23.1,17.7,-001.9,0013.83,0009.11,0008.85
2022-01-21 19:56:00,,0829.1,4.99,0.00,21.5,20.7,00.0,30.8,23.0,17.8,-002.2,0013.84,0009.08,0008.82
2022-01-21 19:57:00,,0829.2,5.01,0.00,21.5,20.7,00.0,30.7,23.0,17.8,-002.2,0013.83,0009.06,0008.79
2022-01-21 19:58:00,,0829.2,5.00,0.00,21.4,20.8,00.0,30.7,23.0,17.9,-002.3,0013.84,0009.05,0008.78
2022-01-21 19:59:00,,0829.1,5.00,0.00,21.6,21.7,00.0,30.7,23.3,17.8,-002.5,0013.77,0009.05,0008.76
